| time (UTC) | temp C | wind direction | speed KPH | gust KPH | rain 1hr cm | rain 24hr cm | rain mn cm | humidity % | barometer mb |
| 20260506133803 | 19 | 315 | 1.6 | 3.2 | 0.00 | 0.00 | 0.00 | 61 | 1007.1 |
| 20260506133252 | 20 | 315 | 1.6 | 3.2 | 0.00 | 0.00 | 0.00 | 60 | 1007.0 |
| 20260506132229 | 20 | 315 | 3.2 | 8.0 | 0.00 | 0.00 | 0.00 | 60 | 1007.2 |
| 20260506131718 | 19 | 315 | 1.6 | 4.8 | 0.00 | 0.00 | 0.00 | 61 | 1007.3 |
| 20260506131206 | 19 | 315 | 3.2 | 6.4 | 0.00 | 0.00 | 0.00 | 61 | 1007.3 |
| 20260506130655 | 19 | 315 | 1.6 | 3.2 | 0.00 | 0.00 | 0.00 | 63 | 1007.5 |
| 20260506130144 | 19 | 315 | 3.2 | 8.0 | 0.00 | 0.00 | 0.00 | 60 | 1007.6 |
| 20260506125632 | 19 | 315 | 6.4 | 9.7 | 0.00 | 0.00 | 0.00 | 61 | 1007.6 |
| 20260506125121 | 19 | 315 | 3.2 | 6.4 | 0.00 | 0.00 | 0.00 | 62 | 1007.6 |
| 20260506124610 | 17 | 315 | 1.6 | 4.8 | 0.00 | 0.00 | 0.00 | 69 | 1007.7 |
| 20260506124058 | 17 | 315 | 1.6 | 4.8 | 0.00 | 0.00 | 0.00 | 70 | 1007.8 |
| 20260506123547 | 17 | 315 | 1.6 | 3.2 | 0.00 | 0.00 | 0.00 | 69 | 1007.9 |
| 20260506123036 | 17 | 315 | 1.6 | 3.2 | 0.00 | 0.00 | 0.00 | 67 | 1008.0 |
| 20260506122525 | 18 | 315 | 3.2 | 6.4 | 0.00 | 0.00 | 0.00 | 66 | 1008.0 |
| 20260506122014 | 18 | 315 | 4.8 | 9.7 | 0.00 | 0.00 | 0.00 | 63 | 1008.0 |
| 20260506121502 | 18 | 315 | 3.2 | 4.8 | 0.00 | 0.00 | 0.00 | 64 | 1008.0 |
| 20260506120951 | 18 | 315 | 3.2 | 6.4 | 0.00 | 0.00 | 0.00 | 63 | 1008.0 |
| 20260506120440 | 19 | 315 | 3.2 | 8.0 | 0.00 | 0.00 | 0.00 | 61 | 1008.0 |
| 20260506115928 | 19 | 315 | 3.2 | 6.4 | 0.00 | 0.00 | 0.00 | 64 | 1008.0 |
| 20260506115417 | 19 | 315 | 3.2 | 6.4 | 0.00 | 0.00 | 0.00 | 64 | 1008.1 |
| 20260506114906 | 19 | 315 | 3.2 | 8.0 | 0.00 | 0.00 | 0.00 | 66 | 1008.1 |
| 20260506114354 | 19 | 315 | 3.2 | 6.4 | 0.00 | 0.00 | 0.00 | 66 | 1008.0 |
| 20260506113843 | 19 | 315 | 4.8 | 8.0 | 0.00 | 0.00 | 0.00 | 65 | 1008.1 |
| 20260506113332 | 19 | 315 | 3.2 | 6.4 | 0.00 | 0.00 | 0.00 | 64 | 1008.1 |
| 20260506112821 | 19 | 315 | 4.8 | 8.0 | 0.00 | 0.00 | 0.00 | 67 | 1008.2 |
| 20260506112309 | 19 | 315 | 3.2 | 6.4 | 0.00 | 0.00 | 0.00 | 65 | 1008.2 |
| 20260506111246 | 20 | 315 | 3.2 | 6.4 | 0.00 | 0.00 | 0.00 | 62 | 1008.2 |
| 20260506110735 | 20 | 315 | 4.8 | 8.0 | 0.00 | 0.00 | 0.00 | 61 | 1008.3 |
| 20260506110224 | 20 | 315 | 4.8 | 9.7 | 0.00 | 0.00 | 0.00 | 64 | 1008.4 |
| 20260506105712 | 20 | 315 | 4.8 | 8.0 | 0.00 | 0.00 | 0.00 | 67 | 1008.5 |
| 20260506105201 | 19 | 315 | 6.4 | 9.7 | 0.00 | 0.00 | 0.00 | 69 | 1008.5 |
| 20260506104649 | 19 | 315 | 3.2 | 6.4 | 0.00 | 0.00 | 0.00 | 71 | 1008.5 |
| 20260506104138 | 19 | 315 | 1.6 | 6.4 | 0.00 | 0.00 | 0.00 | 81 | 1008.5 |
| 20260506103627 | 18 | 315 | 3.2 | 8.0 | 0.00 | 0.00 | 0.00 | 82 | 1008.5 |
| 20260506103115 | 18 | 315 | 1.6 | 4.8 | 0.00 | 0.00 | 0.00 | 88 | 1008.6 |
| 20260506102604 | 17 | 315 | 3.2 | 6.4 | 0.00 | 0.00 | 0.00 | 86 | 1008.5 |
| 20260506102053 | 17 | 315 | 3.2 | 4.8 | 0.00 | 0.00 | 0.00 | 86 | 1008.6 |
| 20260506101542 | 17 | 315 | 3.2 | 6.4 | 0.00 | 0.00 | 0.00 | 89 | 1008.7 |
| 20260506101031 | 17 | 315 | 4.8 | 8.0 | 0.00 | 0.00 | 0.00 | 87 | 1008.8 |
| 20260506100519 | 17 | 315 | 4.8 | 6.4 | 0.00 | 0.00 | 0.00 | 94 | 1008.8 |
| 20260506100008 | 17 | 315 | 3.2 | 4.8 | 0.00 | 0.00 | 0.00 | 10 | 1008.8 |
| 20260506094946 | 17 | 315 | 4.8 | 8.0 | 0.00 | 0.00 | 0.00 | 98 | 1008.7 |
| 20260506094435 | 16 | 315 | 4.8 | 9.7 | 0.00 | 0.00 | 0.00 | 10 | 1008.8 |
| 20260506093924 | 16 | 315 | 4.8 | 6.4 | 0.00 | 0.00 | 0.00 | 10 | 1008.8 |
| 20260506093413 | 16 | 315 | 3.2 | 6.4 | 0.00 | 0.00 | 0.00 | 10 | 1008.7 |
| 20260506092902 | 16 | 315 | 4.8 | 6.4 | 0.00 | 0.00 | 0.00 | 10 | 1008.8 |
| 20260506092351 | 16 | 315 | 4.8 | 6.4 | 0.00 | 0.00 | 0.00 | 10 | 1008.7 |
| 20260506091840 | 16 | 315 | 4.8 | 8.0 | 0.00 | 0.00 | 0.00 | 10 | 1008.6 |
| 20260506091329 | 16 | 315 | 4.8 | 8.0 | 0.00 | 0.00 | 0.00 | 10 | 1008.6 |
| 20260506090818 | 15 | 315 | 4.8 | 6.4 | 0.00 | 0.00 | 0.00 | 10 | 1008.6 |
| 20260506085245 | 14 | 315 | 4.8 | 6.4 | 0.00 | 0.00 | 0.00 | 10 | 1008.7 |
| 20260506084735 | 14 | 315 | 4.8 | 8.0 | 0.00 | 0.00 | 0.00 | 10 | 1008.6 |
| 20260506083202 | 13 | 315 | 4.8 | 4.8 | 0.00 | 0.00 | 0.00 | 10 | 1008.7 |
| 20260506082651 | 13 | 315 | 3.2 | 6.4 | 0.00 | 0.00 | 0.00 | 10 | 1008.7 |
| 20260506082141 | 13 | 315 | 4.8 | 8.0 | 0.00 | 0.00 | 0.00 | 10 | 1008.6 |
| 20260506081630 | 13 | 315 | 4.8 | 8.0 | 0.00 | 0.00 | 0.00 | 10 | 1008.6 |
| 20260506080609 | 13 | 315 | 6.4 | 9.7 | 0.00 | 0.00 | 0.00 | 10 | 1008.8 |
| 20260506073504 | 13 | 315 | 3.2 | 6.4 | 0.00 | 0.00 | 0.00 | 10 | 1008.6 |
| 20260506072954 | 13 | 315 | 6.4 | 9.7 | 0.00 | 0.00 | 0.00 | 10 | 1008.6 |
| 20260506072443 | 13 | 315 | 4.8 | 8.0 | 0.00 | 0.00 | 0.00 | 10 | 1008.8 |
| 20260506071932 | 13 | 315 | 3.2 | 4.8 | 0.00 | 0.00 | 0.00 | 10 | 1008.7 |
| 20260506071422 | 13 | 315 | 4.8 | 4.8 | 0.00 | 0.00 | 0.00 | 10 | 1008.7 |
| 20260506070911 | 12 | 315 | 4.8 | 9.7 | 0.00 | 0.00 | 0.00 | 10 | 1008.6 |
| 20260506070401 | 12 | 315 | 6.4 | 8.0 | 0.00 | 0.00 | 0.00 | 10 | 1008.7 |
| 20260506062236 | 11 | 315 | 3.2 | 6.4 | 0.00 | 0.00 | 0.00 | 10 | 1008.4 |
| 20260506061215 | 11 | 315 | 3.2 | 6.4 | 0.00 | 0.00 | 0.00 | 10 | 1008.5 |
| 20260506051010 | 9 | 315 | 3.2 | 4.8 | 0.00 | 0.00 | 0.00 | 10 | 1008.0 |
| 20260506050500 | 9 | 315 | 3.2 | 6.4 | 0.00 | 0.00 | 0.00 | 10 | 1008.0 |
| 20260506044929 | 9 | 315 | 3.2 | 4.8 | 0.00 | 0.00 | 0.00 | 10 | 1007.9 |
| 20260506044419 | 9 | 315 | 3.2 | 8.0 | 0.00 | 0.00 | 0.00 | 10 | 1007.8 |
| 20260506043909 | 9 | 315 | 3.2 | 6.4 | 0.00 | 0.00 | 0.00 | 10 | 1007.8 |
| 20260506043359 | 9 | 315 | 4.8 | 8.0 | 0.00 | 0.00 | 0.00 | 10 | 1007.8 |
| 20260506042338 | 9 | 315 | 3.2 | 4.8 | 0.00 | 0.00 | 0.00 | 10 | 1007.7 |
| 20260506041828 | 9 | 315 | 3.2 | 4.8 | 0.00 | 0.00 | 0.00 | 10 | 1007.6 |
| 20260506041317 | 9 | 315 | 3.2 | 4.8 | 0.00 | 0.00 | 0.00 | 10 | 1007.5 |
| 20260506040807 | 9 | 315 | 3.2 | 3.2 | 0.00 | 0.00 | 0.00 | 10 | 1007.5 |
| 20260506040257 | 9 | 315 | 3.2 | 4.8 | 0.00 | 0.00 | 0.00 | 10 | 1007.4 |
| 20260506035747 | 9 | 315 | 3.2 | 4.8 | 0.00 | 0.00 | 0.00 | 10 | 1007.4 |
| 20260506035236 | 9 | 315 | 3.2 | 6.4 | 0.00 | 0.00 | 0.00 | 10 | 1007.3 |
| 20260506034726 | 9 | 315 | 3.2 | 3.2 | 0.00 | 0.00 | 0.00 | 10 | 1007.3 |
| 20260506033705 | 9 | 315 | 3.2 | 3.2 | 0.00 | 0.00 | 0.00 | 10 | 1007.2 |
| 20260506033155 | 9 | 315 | 3.2 | 3.2 | 0.00 | 0.00 | 0.00 | 10 | 1007.1 |
| 20260506032645 | 10 | 315 | 1.6 | 3.2 | 0.00 | 0.00 | 0.00 | 10 | 1007.2 |
| 20260506032135 | 10 | 315 | 1.6 | 3.2 | 0.00 | 0.00 | 0.00 | 10 | 1007.3 |
| 20260506031624 | 10 | 315 | 1.6 | 6.4 | 0.00 | 0.00 | 0.00 | 10 | 1007.4 |
| 20260506031114 | 10 | 315 | 3.2 | 4.8 | 0.00 | 0.00 | 0.00 | 10 | 1007.4 |
| 20260506030603 | 10 | 315 | 3.2 | 4.8 | 0.00 | 0.00 | 0.00 | 10 | 1007.5 |
| 20260506030053 | 10 | 315 | 3.2 | 4.8 | 0.00 | 0.00 | 0.00 | 10 | 1007.6 |
| 20260506025543 | 10 | 315 | 3.2 | 4.8 | 0.00 | 0.00 | 0.00 | 10 | 1007.5 |
| 20260506025032 | 10 | 315 | 3.2 | 4.8 | 0.00 | 0.00 | 0.00 | 10 | 1007.3 |
| 20260506024522 | 10 | 315 | 3.2 | 3.2 | 0.00 | 0.00 | 0.00 | 10 | 1007.3 |
| 20260506024012 | 10 | 315 | 3.2 | 3.2 | 0.00 | 0.00 | 0.00 | 10 | 1007.3 |
| 20260506023501 | 10 | 315 | 1.6 | 3.2 | 0.00 | 0.00 | 0.00 | 10 | 1007.2 |
| 20260506022951 | 10 | 315 | 0.0 | 1.6 | 0.00 | 0.00 | 0.00 | 10 | 1007.1 |
| 20260506022441 | 10 | 315 | 0.0 | 0.0 | 0.00 | 0.00 | 0.00 | 10 | 1007.1 |
| 20260506021930 | 10 | 315 | 0.0 | 0.0 | 0.00 | 0.00 | 0.00 | 10 | 1007.0 |
| 20260506021420 | 10 | 315 | 0.0 | 0.0 | 0.00 | 0.00 | 0.00 | 10 | 1007.0 |
| 20260506020914 | 10 | 315 | 0.0 | 0.0 | 0.00 | 0.00 | 0.00 | 10 | 1007.0 |
| 20260506020359 | 10 | 315 | 0.0 | 1.6 | 0.00 | 0.00 | 0.00 | 10 | 1007.0 |
| 20260506015849 | 10 | 315 | 1.6 | 3.2 | 0.00 | 0.00 | 0.00 | 10 | 1007.0 |
| 20260506015338 | 10 | 315 | 1.6 | 4.8 | 0.00 | 0.00 | 0.00 | 10 | 1006.9 |
| 20260506014828 | 10 | 315 | 1.6 | 1.6 | 0.00 | 0.00 | 0.00 | 10 | 1006.9 |
| 20260506014318 | 10 | 315 | 1.6 | 3.2 | 0.00 | 0.00 | 0.00 | 10 | 1006.8 |
| 20260506013807 | 10 | 315 | 1.6 | 3.2 | 0.00 | 0.00 | 0.00 | 10 | 1006.7 |
| 20260506013257 | 11 | 315 | 1.6 | 4.8 | 0.00 | 0.00 | 0.00 | 10 | 1006.7 |
| 20260506012746 | 11 | 315 | 0.0 | 3.2 | 0.00 | 0.00 | 0.00 | 10 | 1006.7 |
| 20260506012236 | 11 | 315 | 0.0 | 1.6 | 0.00 | 0.00 | 0.00 | 10 | 1006.7 |
| 20260506011725 | 11 | 315 | 1.6 | 3.2 | 0.00 | 0.00 | 0.00 | 10 | 1006.8 |
| 20260506010705 | 11 | 315 | 0.0 | 3.2 | 0.00 | 0.00 | 0.00 | 10 | 1007.0 |
| 20260506010154 | 11 | 315 | 1.6 | 4.8 | 0.00 | 0.00 | 0.00 | 10 | 1007.0 |
| 20260506005644 | 10 | 315 | 3.2 | 4.8 | 0.00 | 0.00 | 0.00 | 10 | 1006.9 |
| 20260506005133 | 10 | 315 | 1.6 | 3.2 | 0.00 | 0.00 | 0.00 | 10 | 1006.8 |
| 20260506003602 | 10 | 315 | 1.6 | 4.8 | 0.00 | 0.00 | 0.00 | 10 | 1006.7 |
| 20260506003052 | 10 | 315 | 1.6 | 3.2 | 0.00 | 0.00 | 0.00 | 10 | 1006.6 |
| 20260506002541 | 10 | 315 | 1.6 | 3.2 | 0.00 | 0.00 | 0.00 | 10 | 1006.6 |
| 20260506002031 | 10 | 315 | 3.2 | 6.4 | 0.00 | 0.00 | 0.00 | 10 | 1006.7 |
| 20260506001521 | 10 | 315 | 1.6 | 3.2 | 0.00 | 0.00 | 0.00 | 10 | 1006.6 |
| 20260506001010 | 10 | 315 | 1.6 | 3.2 | 0.00 | 0.00 | 0.00 | 10 | 1006.5 |
| 20260506000500 | 10 | 315 | 1.6 | 3.2 | 0.00 | 0.00 | 0.00 | 10 | 1006.4 |
| 20260505235949 | 10 | 315 | 3.2 | 4.8 | 0.00 | 0.00 | 0.00 | 10 | 1006.4 |
| 20260505235439 | 10 | 315 | 1.6 | 3.2 | 0.00 | 0.00 | 0.00 | 10 | 1006.5 |
| 20260505234928 | 10 | 315 | 3.2 | 4.8 | 0.00 | 0.00 | 0.00 | 10 | 1006.6 |
| 20260505233908 | 11 | 315 | 3.2 | 4.8 | 0.00 | 0.00 | 0.00 | 10 | 1006.7 |
| 20260505233357 | 11 | 315 | 3.2 | 4.8 | 0.00 | 0.00 | 0.00 | 10 | 1006.5 |
| 20260505232847 | 11 | 315 | 4.8 | 6.4 | 0.00 | 0.00 | 0.00 | 10 | 1006.4 |
| 20260505232336 | 11 | 315 | 4.8 | 6.4 | 0.00 | 0.00 | 0.00 | 10 | 1006.4 |
| 20260505231826 | 11 | 315 | 4.8 | 8.0 | 0.00 | 0.00 | 0.00 | 10 | 1006.4 |
| 20260505231315 | 11 | 315 | 3.2 | 6.4 | 0.00 | 0.00 | 0.00 | 10 | 1006.3 |
| 20260505230254 | 11 | 315 | 3.2 | 8.0 | 0.00 | 0.00 | 0.00 | 10 | 1006.3 |
| 20260505225744 | 11 | 315 | 6.4 | 11.3 | 0.00 | 0.00 | 0.00 | 10 | 1006.2 |
| 20260505225233 | 11 | 315 | 3.2 | 8.0 | 0.00 | 0.00 | 0.00 | 10 | 1006.0 |
| 20260505224723 | 11 | 315 | 6.4 | 12.9 | 0.00 | 0.00 | 0.00 | 10 | 1006.0 |
| 20260505223702 | 11 | 315 | 4.8 | 8.0 | 0.00 | 0.00 | 0.00 | 10 | 1006.1 |
| 20260505223151 | 11 | 315 | 1.6 | 4.8 | 0.00 | 0.00 | 0.00 | 10 | 1006.0 |
| 20260505222641 | 11 | 315 | 3.2 | 8.0 | 0.00 | 0.00 | 0.00 | 10 | 1006.0 |
| 20260505222130 | 11 | 315 | 3.2 | 6.4 | 0.00 | 0.00 | 0.00 | 10 | 1006.1 |
| 20260505221620 | 11 | 315 | 3.2 | 6.4 | 0.00 | 0.00 | 0.00 | 10 | 1006.0 |
| 20260505221109 | 11 | 315 | 3.2 | 8.0 | 0.00 | 0.00 | 0.00 | 10 | 1006.0 |
| 20260505220559 | 11 | 315 | 1.6 | 4.8 | 0.00 | 0.00 | 0.00 | 10 | 1005.9 |
| 20260505220048 | 11 | 315 | 1.6 | 3.2 | 0.00 | 0.00 | 0.00 | 10 | 1005.8 |
| 20260505215538 | 11 | 315 | 1.6 | 3.2 | 0.00 | 0.00 | 0.00 | 99 | 1005.8 |
| 20260505215027 | 11 | 315 | 1.6 | 6.4 | 0.00 | 0.00 | 0.00 | 98 | 1005.8 |
| 20260505214517 | 11 | 315 | 1.6 | 4.8 | 0.00 | 0.00 | 0.00 | 97 | 1005.8 |
| 20260505214006 | 11 | 315 | 1.6 | 3.2 | 0.00 | 0.00 | 0.00 | 94 | 1005.7 |
| 20260505213456 | 11 | 315 | 1.6 | 4.8 | 0.00 | 0.00 | 0.00 | 95 | 1005.8 |
| 20260505212945 | 11 | 315 | 1.6 | 4.8 | 0.00 | 0.00 | 0.00 | 93 | 1005.8 |
| 20260505212435 | 11 | 315 | 1.6 | 4.8 | 0.00 | 0.00 | 0.00 | 90 | 1005.8 |
| 20260505211924 | 11 | 315 | 1.6 | 3.2 | 0.00 | 0.00 | 0.00 | 88 | 1005.8 |
| 20260505211414 | 11 | 315 | 1.6 | 4.8 | 0.00 | 0.00 | 0.00 | 87 | 1005.8 |
| 20260505210353 | 12 | 315 | 1.6 | 3.2 | 0.00 | 0.00 | 0.00 | 86 | 1005.9 |
| 20260505205842 | 12 | 315 | 3.2 | 6.4 | 0.00 | 0.00 | 0.00 | 86 | 1005.9 |
| 20260505205332 | 12 | 315 | 1.6 | 4.8 | 0.00 | 0.00 | 0.00 | 84 | 1005.9 |
| 20260505204821 | 12 | 315 | 3.2 | 8.0 | 0.00 | 0.00 | 0.00 | 83 | 1006.0 |
| 20260505204310 | 12 | 315 | 1.6 | 4.8 | 0.00 | 0.00 | 0.00 | 82 | 1006.0 |
| 20260505203800 | 12 | 315 | 3.2 | 6.4 | 0.00 | 0.00 | 0.00 | 81 | 1006.0 |
| 20260505202228 | 12 | 315 | 1.6 | 3.2 | 0.00 | 0.00 | 0.00 | 78 | 1005.8 |
| 20260505201717 | 12 | 315 | 1.6 | 4.8 | 0.00 | 0.00 | 0.00 | 76 | 1006.0 |
| 20260505201207 | 12 | 315 | 1.6 | 3.2 | 0.00 | 0.00 | 0.00 | 77 | 1006.0 |
| 20260505200656 | 13 | 315 | 1.6 | 4.8 | 0.00 | 0.00 | 0.00 | 75 | 1006.0 |
| 20260505200145 | 13 | 315 | 1.6 | 6.4 | 0.00 | 0.00 | 0.00 | 74 | 1006.1 |
| 20260505195635 | 13 | 315 | 1.6 | 4.8 | 0.00 | 0.00 | 0.00 | 72 | 1006.0 |
| 20260505195124 | 13 | 315 | 1.6 | 4.8 | 0.00 | 0.00 | 0.00 | 72 | 1006.1 |
| 20260505194103 | 13 | 315 | 1.6 | 4.8 | 0.00 | 0.00 | 0.00 | 70 | 1006.2 |
| 20260505193552 | 13 | 315 | 3.2 | 6.4 | 0.00 | 0.00 | 0.00 | 69 | 1006.1 |
| 20260505193041 | 13 | 315 | 1.6 | 4.8 | 0.00 | 0.00 | 0.00 | 69 | 1006.1 |
| 20260505192530 | 13 | 315 | 1.6 | 6.4 | 0.00 | 0.00 | 0.00 | 67 | 1006.1 |
| 20260505191509 | 14 | 315 | 1.6 | 8.0 | 0.00 | 0.00 | 0.00 | 66 | 1006.0 |
| 20260505190958 | 14 | 315 | 1.6 | 3.2 | 0.00 | 0.00 | 0.00 | 63 | 1006.1 |
| 20260505185937 | 14 | 315 | 1.6 | 3.2 | 0.00 | 0.00 | 0.00 | 63 | 1006.0 |
| 20260505185426 | 15 | 315 | 1.6 | 3.2 | 0.00 | 0.00 | 0.00 | 62 | 1006.2 |
| 20260505184915 | 15 | 315 | 1.6 | 4.8 | 0.00 | 0.00 | 0.00 | 59 | 1006.1 |
| 20260505184404 | 15 | 315 | 1.6 | 3.2 | 0.00 | 0.00 | 0.00 | 59 | 1006.1 |
| 20260505183853 | 15 | 315 | 0.0 | 1.6 | 0.00 | 0.00 | 0.00 | 58 | 1006.1 |
| 20260505183342 | 15 | 315 | 1.6 | 3.2 | 0.00 | 0.00 | 0.00 | 58 | 1006.0 |
| 20260505182831 | 15 | 315 | 1.6 | 4.8 | 0.00 | 0.00 | 0.00 | 56 | 1006.1 |
| 20260505182320 | 15 | 315 | 1.6 | 3.2 | 0.00 | 0.00 | 0.00 | 54 | 1006.0 |
| 20260505181809 | 16 | 315 | 0.0 | 1.6 | 0.00 | 0.00 | 0.00 | 52 | 1006.1 |
| 20260505181258 | 16 | 315 | 1.6 | 3.2 | 0.00 | 0.00 | 0.00 | 53 | 1006.1 |
| 20260505175725 | 16 | 315 | 0.0 | 3.2 | 0.00 | 0.00 | 0.00 | 47 | 1006.0 |
| 20260505175214 | 16 | 315 | 0.0 | 3.2 | 0.00 | 0.00 | 0.00 | 47 | 1006.0 |
| 20260505174152 | 17 | 315 | 0.0 | 3.2 | 0.00 | 0.00 | 0.00 | 43 | 1006.0 |
| 20260505173641 | 17 | 315 | 0.0 | 1.6 | 0.00 | 0.00 | 0.00 | 44 | 1006.0 |
| 20260505173130 | 17 | 315 | 0.0 | 4.8 | 0.00 | 0.00 | 0.00 | 42 | 1006.0 |
| 20260505171556 | 18 | 315 | 0.0 | 1.6 | 0.00 | 0.00 | 0.00 | 40 | 1006.0 |
| 20260505171045 | 18 | 315 | 0.0 | 0.0 | 0.00 | 0.00 | 0.00 | 39 | 1006.1 |
| 20260505170534 | 18 | 315 | 0.0 | 1.6 | 0.00 | 0.00 | 0.00 | 38 | 1006.1 |
| 20260505170023 | 19 | 315 | 0.0 | 0.0 | 0.00 | 0.00 | 0.00 | 37 | 1006.2 |
| 20260505165511 | 19 | 315 | 0.0 | 1.6 | 0.00 | 0.00 | 0.00 | 37 | 1006.2 |
| 20260505165000 | 20 | 315 | 0.0 | 1.6 | 0.00 | 0.00 | 0.00 | 37 | 1006.2 |
| 20260505164449 | 20 | 315 | 0.0 | 1.6 | 0.00 | 0.00 | 0.00 | 36 | 1006.3 |
| 20260505163937 | 20 | 315 | 0.0 | 1.6 | 0.00 | 0.00 | 0.00 | 36 | 1006.3 |
| 20260505162914 | 22 | 315 | 1.6 | 6.4 | 0.00 | 0.00 | 0.00 | 34 | 1006.4 |
| 20260505162402 | 22 | 315 | 0.0 | 1.6 | 0.00 | 0.00 | 0.00 | 32 | 1006.5 |
| 20260505161851 | 23 | 315 | 0.0 | 1.6 | 0.00 | 0.00 | 0.00 | 31 | 1006.5 |
| 20260505161339 | 24 | 315 | 1.6 | 3.2 | 0.00 | 0.00 | 0.00 | 30 | 1006.6 |
| 20260505160826 | 26 | 315 | 0.0 | 1.6 | 0.00 | 0.00 | 0.00 | 29 | 1006.6 |
| 20260505160314 | 27 | 315 | 0.0 | 3.2 | 0.00 | 0.00 | 0.00 | 28 | 1006.6 |
| 20260505153159 | 28 | 315 | 1.6 | 3.2 | 0.00 | 0.00 | 0.00 | 27 | 1006.5 |
| 20260505152134 | 28 | 315 | 1.6 | 3.2 | 0.00 | 0.00 | 0.00 | 28 | 1006.6 |
| 20260505151621 | 28 | 315 | 1.6 | 4.8 | 0.00 | 0.00 | 0.00 | 28 | 1006.7 |
| 20260505151109 | 28 | 315 | 1.6 | 4.8 | 0.00 | 0.00 | 0.00 | 29 | 1006.7 |
| 20260505150556 | 28 | 315 | 3.2 | 4.8 | 0.00 | 0.00 | 0.00 | 29 | 1006.8 |
| 20260505140328 | 26 | 315 | 1.6 | 4.8 | 0.00 | 0.00 | 0.00 | 35 | 1007.7 |